Torna al catalogo

STARLINK-37033

AttivoComunicazioniVLEO
NORAD 68959·PAYLOAD·🇺🇸 United States

Lanciato May 1, 2026 da Cape Canaveral Space Force Station

Loading…

Prossimi Passaggi (prossime 24 ore)

TLE

AggiornatoSource: CelesTrak SupGP

Epoca: Sep 14, 2026, 23:17 UTC

1 68959C 26099J   26257.97062500  .00008183  00000+0  24178-3 0  2575
2 68959  53.1580 101.7378 0000772  83.7955 302.0525 15.34384419    11

Traccia STARLINK-37033 in tempo reale con AllMySat

Download on the App Store